Lid_Strength_Index
6 6 6 8 11 8 12 12 14 14 13 10 9 8 7 7 6 6 5 4 4 3 3 2 2 2 1 1 1 0 0 0
7 6 6 7 6 11 11 16 17 16 15 14 12 10 8 8 7 6 4 4 4 4 3 2 2 2 1 1 1 1 0 0
8 8 8 8 9 9 9 11 14 16 15 10 10 9 9 8 6 6 5 5 4 3 2 2 2 2 1 1 1 1 0 0
10 7 7 7 8 8 11 13 12 13 14 9 8 8 8 8 6 5 4 4 4 3 3 3 3 2 2 1 1 1 1 0
11 9 8 9 9 8 9 9 13 13 13 8 8 8 7 7 6 6 5 5 4 4 3 3 3 2 2 2 1 1 0 1
13 11 9 10 10 9 9 11 11 11 13 11 10 9 8 7 6 6 6 5 5 4 4 3 3 3 2 2 1 1 1 1
10 10 10 9 10 10 9 9 11 11 12 10 10 9 8 7 6 6 6 5 5 5 4 3 3 2 2 2 1 1 1 1
10 9 10 10 10 9 10 10 10 10 11 7 7 7 8 7 7 7 6 5 5 5 4 4 3 2 2 2 1 1 1 2
12 10 10 11 10 11 11 10 10 12 10 8 9 8 8 7 6 6 6 5 5 5 6 5 4 2 3 3 2 3 2 2
12 11 15 9 8 8 10 10 9 9 9 8 8 7 6 5 6 6 5 5 6 6 7 7 6 6 6 6 6 6 5 4
12 13 11 9 9 9 9 10 9 9 8 8 7 7 7 5 4 4 4 6 7 7 7 7 7 7 7 7 6 6 7 6
11 14 16 11 7 6 7 11 8 7 8 8 7 11 9 6 5 5 5 6 7 8 8 8 8 8 8 8 8 8 8 7
12 13 11 7 6 6 12 11 7 7 7 7 8 6 6 6 6 5 6 7 7 8 8 8 8 7 8 8 8 8 8 8
11 12 13 6 7 10 7 6 6 6 6 6 5 5 6 7 6 5 5 6 7 7 6 6 6 6 6 6 5 5 4 4
10 10 7 5 6 5 5 6 6 6 5 5 5 5 6 6 5 4 5 5 5 6 6 6 6 5 6 6 6 5 5 5
10 8 7 5 5 4 4 5 5 4 5 5 5 5 5 6 6 5 5 6 5 6 7 7 7 6 7 6 6 6 7 7
9 7 6 5 5 4 4 4 4 4 4 5 4 5 6 7 7 8 7 6 6 6 7 7 6 6 6 6 5 7 8 8
9 7 6 6 4 4 4 5 4 4 4 4 4 5 6 7 7 7 8 7 7 6 6 6 6 7 6 6 6 7 8 9
7 5 5 4 4 4 4 4 4 3 3 4 4 5 6 7 6 6 7 7 7 7 6 6 6 7 6 6 6 7 8 9